Time,TemperatureF,DewpointF,PressureIn,WindDirection,WindDirectionDegrees,WindSpeedMPH,WindSpeedGustMPH,Humidity,HourlyPrecipIn,Conditions,Clouds,dailyrainin,SoftwareType,DateUTC
2013-03-18 00:00:00,49.0,45.6,30.08,South,182,0.0,1.0,88,0.00,,,0.00,Wunderground v.1.15,2013-03-18 04:00:00,
2013-03-18 00:03:00,48.9,45.5,30.08,South,188,0.0,1.0,88,0.00,,,0.00,Wunderground v.1.15,2013-03-18 04:03:00,
2013-03-18 00:04:00,48.8,45.7,30.08,NE,49,0.0,1.0,89,0.00,,,0.00,Wunderground v.1.15,2013-03-18 04:04:00,
2013-03-18 00:08:00,48.7,45.6,30.08,South,185,0.0,2.0,89,0.00,,,0.00,Wunderground v.1.15,2013-03-18 04:08:00,
2013-03-18 00:13:00,48.6,45.5,30.07,East,84,0.0,2.0,89,0.00,,,0.00,Wunderground v.1.15,2013-03-18 04:13:00,
2013-03-18 00:18:00,48.3,45.2,30.08,SE,126,0.0,2.0,89,0.00,,,0.00,Wunderground v.1.15,2013-03-18 04:18:00,
2013-03-18 00:24:00,48.1,45.0,30.08,SE,126,0.0,1.0,89,0.00,,,0.00,Wunderground v.1.15,2013-03-18 04:24:00,
2013-03-18 00:30:00,47.9,44.8,30.08,SE,130,0.0,0.0,89,0.00,,,0.00,Wunderground v.1.15,2013-03-18 04:30:00,
2013-03-18 00:35:00,47.8,44.7,30.08,SE,130,0.0,0.0,89,0.00,,,0.00,Wunderground v.1.15,2013-03-18 04:35:00,
2013-03-18 00:40:00,47.7,44.6,30.08,SE,130,1.0,1.0,89,0.00,,,0.00,Wunderground v.1.15,2013-03-18 04:40:00,
2013-03-18 00:46:00,47.5,44.4,30.08,SE,130,0.0,1.0,89,0.00,,,0.00,Wunderground v.1.15,2013-03-18 04:46:00,
2013-03-18 00:52:00,47.3,44.2,30.08,SE,130,0.0,0.0,89,0.00,,,0.00,Wunderground v.1.15,2013-03-18 04:52:00,
2013-03-18 00:57:00,47.1,44.3,30.09,SE,130,0.0,0.0,90,0.00,,,0.00,Wunderground v.1.15,2013-03-18 04:57:00,
2013-03-18 01:03:00,46.9,44.1,30.08,SE,130,0.0,0.0,90,0.00,,,0.00,Wunderground v.1.15,2013-03-18 05:03:00,
2013-03-18 01:08:00,46.8,44.0,30.09,SE,130,0.0,1.0,90,0.00,,,0.00,Wunderground v.1.15,2013-03-18 05:08:00,
2013-03-18 01:13:00,46.7,43.9,30.09,SE,130,0.0,0.0,90,0.00,,,0.00,Wunderground v.1.15,2013-03-18 05:13:00,
2013-03-18 01:18:00,46.6,43.8,30.09,SE,130,0.0,0.0,90,0.00,,,0.00,Wunderground v.1.15,2013-03-18 05:18:00,
2013-03-18 01:24:00,46.6,43.8,30.08,SE,130,1.0,1.0,90,0.00,,,0.00,Wunderground v.1.15,2013-03-18 05:24:00,
2013-03-18 01:29:00,46.5,43.7,30.08,SW,231,2.0,2.0,90,0.00,,,0.00,Wunderground v.1.15,2013-03-18 05:29:00,
2013-03-18 01:35:00,46.3,43.5,30.08,South,173,1.0,3.0,90,0.00,,,0.00,Wunderground v.1.15,2013-03-18 05:35:00,
2013-03-18 01:40:00,46.2,43.4,30.09,South,176,1.0,1.0,90,0.00,,,0.00,Wunderground v.1.15,2013-03-18 05:40:00,
2013-03-18 01:46:00,46.1,43.3,30.09,South,185,0.0,3.0,90,0.00,,,0.00,Wunderground v.1.15,2013-03-18 05:46:00,
2013-03-18 01:51:00,46.0,43.2,30.09,SSE,163,0.0,1.0,90,0.00,,,0.00,Wunderground v.1.15,2013-03-18 05:51:00,
2013-03-18 01:57:00,45.9,43.1,30.09,SSE,168,0.0,1.0,90,0.00,,,0.00,Wunderground v.1.15,2013-03-18 05:57:00,
2013-03-18 02:02:00,45.9,43.1,30.09,SSE,167,1.0,2.0,90,0.00,,,0.00,Wunderground v.1.15,2013-03-18 06:02:00,
2013-03-18 02:07:00,45.8,43.0,30.09,SSE,165,1.0,2.0,90,0.00,,,0.00,Wunderground v.1.15,2013-03-18 06:07:00,
2013-03-18 02:12:00,45.8,43.0,30.09,South,188,0.0,1.0,90,0.00,,,0.00,Wunderground v.1.15,2013-03-18 06:12:00,
2013-03-18 02:17:00,45.7,42.9,30.09,South,180,0.0,3.0,90,0.00,,,0.00,Wunderground v.1.15,2013-03-18 06:17:00,
2013-03-18 02:22:00,45.7,42.9,30.10,South,179,0.0,1.0,90,0.00,,,0.00,Wunderground v.1.15,2013-03-18 06:22:00,
2013-03-18 02:27:00,45.6,42.8,30.10,SSE,165,0.0,3.0,90,0.00,,,0.00,Wunderground v.1.15,2013-03-18 06:27:00,
2013-03-18 02:32:00,45.5,42.7,30.09,SSE,160,0.0,1.0,90,0.00,,,0.00,Wunderground v.1.15,2013-03-18 06:32:00,
2013-03-18 02:37:00,45.4,42.6,30.09,SSE,163,3.0,4.0,90,0.00,,,0.00,Wunderground v.1.15,2013-03-18 06:37:00,
2013-03-18 02:42:00,45.2,42.4,30.09,SSE,165,0.0,3.0,90,0.00,,,0.00,Wunderground v.1.15,2013-03-18 06:42:00,
2013-03-18 02:47:00,45.0,42.2,30.10,SSE,149,1.0,3.0,90,0.00,,,0.00,Wunderground v.1.15,2013-03-18 06:47:00,
2013-03-18 02:52:00,44.8,42.0,30.10,SE,146,0.0,3.0,90,0.00,,,0.00,Wunderground v.1.15,2013-03-18 06:52:00,
2013-03-18 02:57:00,44.7,41.9,30.10,SSE,165,0.0,4.0,90,0.00,,,0.00,Wunderground v.1.15,2013-03-18 06:57:00,
2013-03-18 03:02:00,44.5,42.0,30.10,South,182,0.0,6.0,91,0.00,,,0.00,Wunderground v.1.15,2013-03-18 07:02:00,
2013-03-18 03:07:00,44.3,41.8,30.10,South,181,0.0,6.0,91,0.00,,,0.00,Wunderground v.1.15,2013-03-18 07:07:00,
2013-03-18 03:12:00,44.2,41.7,30.10,South,169,3.0,3.0,91,0.00,,,0.00,Wunderground v.1.15,2013-03-18 07:12:00,
2013-03-18 03:17:00,44.0,41.5,30.10,SSE,154,0.0,6.0,91,0.00,,,0.00,Wunderground v.1.15,2013-03-18 07:17:00,
2013-03-18 03:22:00,43.9,41.4,30.11,SSE,156,0.0,2.0,91,0.00,,,0.00,Wunderground v.1.15,2013-03-18 07:22:00,
2013-03-18 03:27:00,43.8,41.6,30.11,South,173,4.0,7.0,92,0.00,,,0.00,Wunderground v.1.15,2013-03-18 07:27:00,
2013-03-18 03:32:00,43.6,41.4,30.10,South,178,1.0,4.0,92,0.00,,,0.00,Wunderground v.1.15,2013-03-18 07:32:00,
2013-03-18 03:37:00,43.4,41.2,30.11,SSE,153,0.0,4.0,92,0.00,,,0.00,Wunderground v.1.15,2013-03-18 07:37:00,
2013-03-18 03:42:00,43.3,41.1,30.10,SSE,153,0.0,1.0,92,0.00,,,0.00,Wunderground v.1.15,2013-03-18 07:42:00,
2013-03-18 03:47:00,43.2,41.3,30.10,SSE,153,0.0,1.0,93,0.00,,,0.00,Wunderground v.1.15,2013-03-18 07:47:00,
2013-03-18 03:52:00,43.2,41.3,30.10,SSE,153,0.0,0.0,93,0.00,,,0.00,Wunderground v.1.15,2013-03-18 07:52:00,
2013-03-18 03:57:00,43.1,41.2,30.10,SSE,153,0.0,0.0,93,0.00,,,0.00,Wunderground v.1.15,2013-03-18 07:57:00,
2013-03-18 04:02:00,43.0,41.1,30.10,SSE,163,2.0,3.0,93,0.00,,,0.00,Wunderground v.1.15,2013-03-18 08:02:00,
2013-03-18 04:07:00,42.9,41.0,30.10,SSE,167,0.0,3.0,93,0.00,,,0.00,Wunderground v.1.15,2013-03-18 08:07:00,
2013-03-18 04:12:00,42.9,41.0,30.10,SSE,167,1.0,2.0,93,0.00,,,0.00,Wunderground v.1.15,2013-03-18 08:12:00,
2013-03-18 04:18:00,42.8,41.2,30.11,South,169,0.0,2.0,94,0.00,,,0.00,Wunderground v.1.15,2013-03-18 08:18:00,
2013-03-18 04:23:00,42.7,41.1,30.11,SE,145,0.0,1.0,94,0.00,,,0.00,Wunderground v.1.15,2013-03-18 08:23:00,
2013-03-18 04:28:00,42.6,41.0,30.11,SE,146,1.0,2.0,94,0.00,,,0.00,Wunderground v.1.15,2013-03-18 08:28:00,
2013-03-18 04:33:00,42.5,40.9,30.11,South,177,1.0,3.0,94,0.00,,,0.00,Wunderground v.1.15,2013-03-18 08:33:00,
2013-03-18 04:38:00,42.4,40.8,30.11,SSE,164,0.0,4.0,94,0.00,,,0.00,Wunderground v.1.15,2013-03-18 08:38:00,
2013-03-18 04:43:00,42.3,41.0,30.11,SSE,163,1.0,2.0,95,0.00,,,0.00,Wunderground v.1.15,2013-03-18 08:43:00,
2013-03-18 04:48:00,42.1,40.8,30.11,SSE,166,1.0,3.0,95,0.00,,,0.00,Wunderground v.1.15,2013-03-18 08:48:00,
2013-03-18 04:53:00,42.0,40.7,30.11,SSE,164,3.0,3.0,95,0.00,,,0.00,Wunderground v.1.15,2013-03-18 08:53:00,
2013-03-18 04:58:00,41.8,40.7,30.11,SE,140,0.0,4.0,96,0.00,,,0.00,Wunderground v.1.15,2013-03-18 08:58:00,
2013-03-18 05:03:00,41.7,40.6,30.12,South,169,1.0,4.0,96,0.00,,,0.00,Wunderground v.1.15,2013-03-18 09:03:00,
2013-03-18 05:08:00,41.5,40.4,30.11,South,180,0.0,4.0,96,0.00,,,0.00,Wunderground v.1.15,2013-03-18 09:08:00,
2013-03-18 05:13:00,41.3,40.2,30.11,South,171,1.0,4.0,96,0.00,,,0.00,Wunderground v.1.15,2013-03-18 09:13:00,
2013-03-18 05:18:00,41.2,40.4,30.11,SSE,150,3.0,4.0,97,0.00,,,0.00,Wunderground v.1.15,2013-03-18 09:18:00,
2013-03-18 05:23:00,41.1,40.3,30.12,South,169,0.0,1.0,97,0.00,,,0.00,Wunderground v.1.15,2013-03-18 09:23:00,
2013-03-18 05:28:00,41.0,40.2,30.11,SSE,164,0.0,3.0,97,0.00,,,0.00,Wunderground v.1.15,2013-03-18 09:28:00,
2013-03-18 05:33:00,40.9,40.1,30.11,SSE,168,2.0,4.0,97,0.00,,,0.00,Wunderground v.1.15,2013-03-18 09:33:00,
2013-03-18 05:38:00,40.8,40.0,30.11,South,173,3.0,4.0,97,0.00,,,0.00,Wunderground v.1.15,2013-03-18 09:38:00,
2013-03-18 05:43:00,40.7,40.2,30.11,South,179,3.0,5.0,98,0.00,,,0.00,Wunderground v.1.15,2013-03-18 09:43:00,
2013-03-18 05:48:00,40.5,40.0,30.10,SSE,163,4.0,5.0,98,0.00,,,0.00,Wunderground v.1.15,2013-03-18 09:48:00,
2013-03-18 05:53:00,40.4,39.9,30.11,SSE,163,3.0,5.0,98,0.00,,,0.00,Wunderground v.1.15,2013-03-18 09:53:00,
2013-03-18 05:58:00,40.4,39.9,30.10,SSE,153,0.0,5.0,98,0.00,,,0.00,Wunderground v.1.15,2013-03-18 09:58:00,
2013-03-18 06:03:00,40.4,39.9,30.10,SSE,153,0.0,1.0,98,0.00,,,0.00,Wunderground v.1.15,2013-03-18 10:03:00,
2013-03-18 06:08:00,40.3,39.8,30.10,SSE,153,0.0,1.0,98,0.00,,,0.00,Wunderground v.1.15,2013-03-18 10:08:00,
2013-03-18 06:13:00,40.4,39.9,30.10,ESE,106,0.0,1.0,98,0.00,,,0.00,Wunderground v.1.15,2013-03-18 10:13:00,
2013-03-18 06:18:00,40.4,39.9,30.10,ESE,106,0.0,1.0,98,0.00,,,0.00,Wunderground v.1.15,2013-03-18 10:18:00,
2013-03-18 06:23:00,40.4,39.9,30.11,ESE,106,0.0,0.0,98,0.00,,,0.00,Wunderground v.1.15,2013-03-18 10:23:00,
2013-03-18 06:28:00,40.3,39.8,30.12,ESE,106,0.0,1.0,98,0.00,,,0.00,Wunderground v.1.15,2013-03-18 10:28:00,
2013-03-18 06:33:00,40.3,39.8,30.11,ESE,106,0.0,1.0,98,0.00,,,0.00,Wunderground v.1.15,2013-03-18 10:33:00,
2013-03-18 06:38:00,40.2,39.7,30.11,South,174,0.0,2.0,98,0.00,,,0.00,Wunderground v.1.15,2013-03-18 10:38:00,
2013-03-18 06:43:00,40.1,39.6,30.10,South,184,0.0,4.0,98,0.00,,,0.00,Wunderground v.1.15,2013-03-18 10:43:00,
2013-03-18 06:48:00,40.0,39.5,30.11,South,171,0.0,4.0,98,0.00,,,0.00,Wunderground v.1.15,2013-03-18 10:48:00,
2013-03-18 06:53:00,40.0,39.5,30.11,South,171,0.0,2.0,98,0.00,,,0.00,Wunderground v.1.15,2013-03-18 10:53:00,
2013-03-18 06:58:00,40.0,39.5,30.12,South,171,0.0,2.0,98,0.00,,,0.00,Wunderground v.1.15,2013-03-18 10:58:00,
2013-03-18 07:03:00,40.0,39.5,30.12,South,171,0.0,2.0,98,0.00,,,0.00,Wunderground v.1.15,2013-03-18 11:03:00,
2013-03-18 07:08:00,39.9,39.4,30.12,SSE,162,0.0,2.0,98,0.00,,,0.00,Wunderground v.1.15,2013-03-18 11:08:00,
2013-03-18 07:13:00,39.9,39.4,30.12,SSE,162,0.0,1.0,98,0.00,,,0.00,Wunderground v.1.15,2013-03-18 11:13:00,
2013-03-18 07:18:00,39.9,39.4,30.12,SSW,198,1.0,5.0,98,0.00,,,0.00,Wunderground v.1.15,2013-03-18 11:18:00,
2013-03-18 07:23:00,39.8,39.3,30.12,South,177,0.0,4.0,98,0.00,,,0.00,Wunderground v.1.15,2013-03-18 11:23:00,
2013-03-18 07:28:00,39.6,39.1,30.13,SSE,153,2.0,4.0,98,0.00,,,0.00,Wunderground v.1.15,2013-03-18 11:28:00,
2013-03-18 07:33:00,39.4,38.9,30.13,South,183,1.0,5.0,98,0.00,,,0.00,Wunderground v.1.15,2013-03-18 11:33:00,
2013-03-18 07:38:00,39.3,39.0,30.13,South,182,0.0,5.0,99,0.00,,,0.00,Wunderground v.1.15,2013-03-18 11:38:00,
2013-03-18 07:43:00,39.2,38.9,30.13,South,169,0.0,5.0,99,0.00,,,0.00,Wunderground v.1.15,2013-03-18 11:43:00,
2013-03-18 07:48:00,39.1,38.8,30.12,SSE,168,1.0,5.0,99,0.00,,,0.00,Wunderground v.1.15,2013-03-18 11:48:00,
2013-03-18 07:53:00,39.0,38.7,30.12,South,172,0.0,4.0,99,0.00,,,0.00,Wunderground v.1.15,2013-03-18 11:53:00,
2013-03-18 07:58:00,38.9,38.6,30.13,South,173,0.0,4.0,99,0.00,,,0.00,Wunderground v.1.15,2013-03-18 11:58:00,
2013-03-18 08:03:00,38.9,38.6,30.14,South,173,0.0,1.0,99,0.00,,,0.00,Wunderground v.1.15,2013-03-18 12:03:00,
2013-03-18 08:08:00,38.9,38.9,30.14,South,173,0.0,1.0,100,0.00,,,0.00,Wunderground v.1.15,2013-03-18 12:08:00,
2013-03-18 08:13:00,38.9,38.6,30.13,SSE,165,3.0,6.0,99,0.00,,,0.00,Wunderground v.1.15,2013-03-18 12:13:00,
2013-03-18 08:18:00,38.7,38.4,30.12,SSE,163,3.0,6.0,99,0.00,,,0.00,Wunderground v.1.15,2013-03-18 12:18:00,
2013-03-18 08:23:00,38.6,38.6,30.13,South,169,1.0,4.0,100,0.00,,,0.00,Wunderground v.1.15,2013-03-18 12:23:00,
2013-03-18 08:28:00,38.6,38.6,30.14,South,172,1.0,4.0,100,0.00,,,0.00,Wunderground v.1.15,2013-03-18 12:28:00,
2013-03-18 08:33:00,38.6,38.6,30.14,South,184,0.0,2.0,100,0.00,,,0.00,Wunderground v.1.15,2013-03-18 12:33:00,
2013-03-18 08:38:00,38.6,38.6,30.14,South,171,0.0,5.0,100,0.00,,,0.00,Wunderground v.1.15,2013-03-18 12:38:00,
2013-03-18 08:43:00,38.5,38.5,30.14,SSE,166,3.0,7.0,100,0.00,,,0.00,Wunderground v.1.15,2013-03-18 12:43:00,
2013-03-18 08:48:00,38.3,38.0,30.14,South,180,4.0,11.0,99,0.00,,,0.00,Wunderground v.1.15,2013-03-18 12:48:00,
2013-03-18 08:53:00,38.1,37.8,30.14,SSE,160,2.0,6.0,99,0.00,,,0.00,Wunderground v.1.15,2013-03-18 12:53:00,
2013-03-18 08:58:00,38.0,38.0,30.13,South,173,4.0,6.0,100,0.00,,,0.00,Wunderground v.1.15,2013-03-18 12:58:00,
2013-03-18 09:04:00,37.8,37.8,30.14,SSE,167,0.0,8.0,100,0.00,,,0.00,Wunderground v.1.15,2013-03-18 13:04:00,
2013-03-18 09:08:00,37.7,37.7,30.13,South,172,2.0,9.0,100,0.00,,,0.00,Wunderground v.1.15,2013-03-18 13:08:00,
2013-03-18 09:13:00,37.7,37.7,30.14,South,171,1.0,5.0,100,0.00,,,0.00,Wunderground v.1.15,2013-03-18 13:13:00,
2013-03-18 09:18:00,37.7,37.7,30.14,SSE,168,2.0,5.0,100,0.00,,,0.00,Wunderground v.1.15,2013-03-18 13:18:00,
2013-03-18 09:24:00,37.6,37.6,30.14,South,170,0.0,3.0,100,0.00,,,0.00,Wunderground v.1.15,2013-03-18 13:24:00,
2013-03-18 09:29:00,37.6,37.6,30.13,South,180,3.0,5.0,100,0.00,,,0.00,Wunderground v.1.15,2013-03-18 13:29:00,
2013-03-18 09:34:00,37.6,37.6,30.12,South,171,0.0,3.0,100,0.00,,,0.01,Wunderground v.1.15,2013-03-18 13:34:00,
2013-03-18 09:39:00,37.6,37.6,30.12,South,170,0.0,4.0,100,0.00,,,0.01,Wunderground v.1.15,2013-03-18 13:39:00,
2013-03-18 09:44:00,37.6,37.6,30.13,SE,138,0.0,1.0,100,0.00,,,0.01,Wunderground v.1.15,2013-03-18 13:44:00,
2013-03-18 09:49:00,37.6,37.6,30.13,SE,139,0.0,2.0,100,0.00,,,0.01,Wunderground v.1.15,2013-03-18 13:49:00,
2013-03-18 09:54:00,37.6,37.6,30.14,SE,144,0.0,2.0,100,0.00,,,0.01,Wunderground v.1.15,2013-03-18 13:54:00,
2013-03-18 09:59:00,37.7,37.7,30.14,South,171,0.0,2.0,100,0.00,,,0.01,Wunderground v.1.15,2013-03-18 13:59:00,
2013-03-18 10:04:00,37.7,37.7,30.14,South,173,0.0,4.0,100,0.00,,,0.01,Wunderground v.1.15,2013-03-18 14:04:00,
2013-03-18 10:09:00,37.7,37.7,30.14,South,173,0.0,4.0,100,0.00,,,0.01,Wunderground v.1.15,2013-03-18 14:09:00,
2013-03-18 10:14:00,37.7,37.7,30.14,South,174,0.0,4.0,100,0.00,,,0.01,Wunderground v.1.15,2013-03-18 14:14:00,
2013-03-18 10:19:00,37.6,37.6,30.14,South,180,2.0,4.0,100,0.00,,,0.01,Wunderground v.1.15,2013-03-18 14:19:00,
2013-03-18 10:24:00,37.5,37.5,30.14,NNW,330,0.0,5.0,100,0.00,,,0.01,Wunderground v.1.15,2013-03-18 14:24:00,
2013-03-18 10:29:00,37.4,37.4,30.14,South,173,0.0,5.0,100,0.00,,,0.01,Wunderground v.1.15,2013-03-18 14:29:00,
2013-03-18 10:34:00,37.4,37.4,30.14,SSE,168,2.0,4.0,100,0.00,,,0.01,Wunderground v.1.15,2013-03-18 14:34:00,
2013-03-18 10:39:00,37.4,37.4,30.14,South,186,1.0,5.0,100,0.00,,,0.01,Wunderground v.1.15,2013-03-18 14:39:00,
2013-03-18 10:44:00,37.3,37.3,30.14,SSE,160,0.0,4.0,100,0.00,,,0.01,Wunderground v.1.15,2013-03-18 14:44:00,
2013-03-18 10:49:00,37.3,37.3,30.14,South,182,0.0,4.0,100,0.00,,,0.01,Wunderground v.1.15,2013-03-18 14:49:00,
2013-03-18 10:54:00,37.4,37.4,30.14,South,182,0.0,2.0,100,0.00,,,0.01,Wunderground v.1.15,2013-03-18 14:54:00,
2013-03-18 11:00:00,37.5,37.5,30.14,SSE,167,2.0,2.0,100,0.00,,,0.01,Wunderground v.1.15,2013-03-18 15:00:00,
2013-03-18 11:05:00,37.5,37.5,30.14,South,169,0.0,3.0,100,0.00,,,0.01,Wunderground v.1.15,2013-03-18 15:05:00,
2013-03-18 11:10:00,37.6,37.6,30.13,South,171,3.0,3.0,100,0.00,,,0.01,Wunderground v.1.15,2013-03-18 15:10:00,
2013-03-18 11:15:00,37.6,37.6,30.13,SSE,162,0.0,5.0,100,0.00,,,0.01,Wunderground v.1.15,2013-03-18 15:15:00,
2013-03-18 11:20:00,37.7,37.7,30.14,South,178,1.0,2.0,100,0.00,,,0.01,Wunderground v.1.15,2013-03-18 15:20:00,
2013-03-18 11:25:00,37.8,37.8,30.13,South,170,0.0,3.0,100,0.00,,,0.01,Wunderground v.1.15,2013-03-18 15:25:00,
2013-03-18 11:30:00,37.9,37.9,30.13,South,171,2.0,2.0,100,0.00,,,0.01,Wunderground v.1.15,2013-03-18 15:30:00,
2013-03-18 11:35:00,37.9,37.9,30.12,South,178,1.0,4.0,100,0.00,,,0.02,Wunderground v.1.15,2013-03-18 15:35:00,
2013-03-18 11:40:00,37.9,37.9,30.12,South,182,6.0,6.0,100,0.00,,,0.02,Wunderground v.1.15,2013-03-18 15:40:00,
2013-03-18 11:45:00,38.0,38.0,30.12,South,173,1.0,6.0,100,0.00,,,0.02,Wunderground v.1.15,2013-03-18 15:45:00,
2013-03-18 11:50:00,38.0,38.0,30.12,South,173,3.0,5.0,100,0.00,,,0.02,Wunderground v.1.15,2013-03-18 15:50:00,
2013-03-18 11:55:00,37.9,37.9,30.11,SSE,168,3.0,6.0,100,0.00,,,0.02,Wunderground v.1.15,2013-03-18 15:55:00,
2013-03-18 12:00:00,37.9,37.9,30.13,SE,142,0.0,2.0,100,0.00,,,0.02,Wunderground v.1.15,2013-03-18 16:00:00,
2013-03-18 12:05:00,38.0,38.0,30.12,South,169,2.0,7.0,100,0.00,,,0.02,Wunderground v.1.15,2013-03-18 16:05:00,
2013-03-18 12:10:00,38.0,38.0,30.11,SSE,158,5.0,9.0,100,0.00,,,0.02,Wunderground v.1.15,2013-03-18 16:10:00,
2013-03-18 12:15:00,38.0,38.0,30.12,SSE,160,3.0,12.0,100,0.00,,,0.02,Wunderground v.1.15,2013-03-18 16:15:00,
2013-03-18 12:20:00,38.0,38.0,30.12,SSE,158,1.0,4.0,100,0.00,,,0.02,Wunderground v.1.15,2013-03-18 16:20:00,
2013-03-18 12:25:00,38.1,38.1,30.12,South,173,2.0,6.0,100,0.00,,,0.02,Wunderground v.1.15,2013-03-18 16:25:00,
2013-03-18 12:30:00,38.1,38.1,30.12,SSE,163,6.0,6.0,100,0.00,,,0.02,Wunderground v.1.15,2013-03-18 16:30:00,
2013-03-18 12:35:00,38.1,38.1,30.12,South,171,1.0,6.0,100,0.00,,,0.02,Wunderground v.1.15,2013-03-18 16:35:00,
2013-03-18 12:40:00,38.2,38.2,30.12,South,186,4.0,9.0,100,0.00,,,0.02,Wunderground v.1.15,2013-03-18 16:40:00,
2013-03-18 12:45:00,38.2,38.2,30.13,ESE,118,0.0,9.0,100,0.00,,,0.02,Wunderground v.1.15,2013-03-18 16:45:00,
2013-03-18 12:51:00,38.2,38.2,30.12,South,188,3.0,4.0,100,0.00,,,0.02,Wunderground v.1.15,2013-03-18 16:51:00,
2013-03-18 12:56:00,38.2,38.2,30.11,SSW,194,5.0,6.0,100,0.00,,,0.02,Wunderground v.1.15,2013-03-18 16:56:00,
2013-03-18 13:01:00,38.1,38.1,30.11,SSE,147,2.0,9.0,100,0.00,,,0.02,Wunderground v.1.15,2013-03-18 17:01:00,
2013-03-18 13:06:00,38.0,38.0,30.10,SE,140,0.0,9.0,100,0.00,,,0.02,Wunderground v.1.15,2013-03-18 17:06:00,
2013-03-18 13:11:00,38.1,38.1,30.10,SSE,160,2.0,3.0,100,0.00,,,0.02,Wunderground v.1.15,2013-03-18 17:11:00,
2013-03-18 13:16:00,38.2,38.2,30.09,South,173,2.0,9.0,100,0.00,,,0.02,Wunderground v.1.15,2013-03-18 17:16:00,
2013-03-18 13:22:00,38.4,38.4,30.09,SE,133,0.0,2.0,100,0.00,,,0.02,Wunderground v.1.15,2013-03-18 17:22:00,
2013-03-18 13:27:00,38.5,38.5,30.08,SSE,156,2.0,6.0,100,0.00,,,0.02,Wunderground v.1.15,2013-03-18 17:27:00,
2013-03-18 13:32:00,38.5,38.5,30.09,SSE,148,2.0,5.0,100,0.00,,,0.02,Wunderground v.1.15,2013-03-18 17:32:00,
2013-03-18 13:37:00,38.5,38.5,30.09,SSE,157,0.0,5.0,100,0.00,,,0.02,Wunderground v.1.15,2013-03-18 17:37:00,
2013-03-18 13:42:00,38.6,38.6,30.08,SSE,157,0.0,2.0,100,0.00,,,0.02,Wunderground v.1.15,2013-03-18 17:42:00,
2013-03-18 13:47:00,38.7,38.7,30.08,SSE,155,1.0,2.0,100,0.00,,,0.02,Wunderground v.1.15,2013-03-18 17:47:00,
2013-03-18 13:52:00,38.7,38.7,30.08,South,173,0.0,3.0,100,0.00,,,0.02,Wunderground v.1.15,2013-03-18 17:52:00,
2013-03-18 13:57:00,38.7,38.7,30.08,SSE,155,2.0,4.0,100,0.00,,,0.02,Wunderground v.1.15,2013-03-18 17:57:00,
2013-03-18 14:02:00,38.7,38.7,30.08,SE,146,0.0,1.0,100,0.00,,,0.02,Wunderground v.1.15,2013-03-18 18:02:00,
2013-03-18 14:07:00,38.9,38.9,30.08,SE,146,0.0,1.0,100,0.00,,,0.02,Wunderground v.1.15,2013-03-18 18:07:00,
2013-03-18 14:12:00,39.1,39.1,30.07,SE,146,0.0,1.0,100,0.00,,,0.02,Wunderground v.1.15,2013-03-18 18:12:00,
2013-03-18 14:17:00,39.2,39.2,30.06,South,182,1.0,3.0,100,0.00,,,0.02,Wunderground v.1.15,2013-03-18 18:17:00,
2013-03-18 14:22:00,39.3,39.3,30.08,SSE,166,0.0,2.0,100,0.00,,,0.02,Wunderground v.1.15,2013-03-18 18:22:00,
2013-03-18 14:27:00,39.3,39.3,30.07,South,169,4.0,5.0,100,0.00,,,0.03,Wunderground v.1.15,2013-03-18 18:27:00,
2013-03-18 14:33:00,39.2,39.2,30.06,SSE,152,2.0,6.0,100,0.00,,,0.03,Wunderground v.1.15,2013-03-18 18:33:00,
2013-03-18 14:38:00,39.2,39.2,30.07,South,170,1.0,6.0,100,0.00,,,0.03,Wunderground v.1.15,2013-03-18 18:38:00,
2013-03-18 14:43:00,39.3,39.3,30.07,South,172,0.0,2.0,100,0.00,,,0.03,Wunderground v.1.15,2013-03-18 18:43:00,
2013-03-18 14:48:00,39.4,39.4,30.05,South,175,1.0,3.0,100,0.00,,,0.03,Wunderground v.1.15,2013-03-18 18:48:00,
2013-03-18 14:53:00,39.6,39.6,30.05,South,175,0.0,4.0,100,0.00,,,0.03,Wunderground v.1.15,2013-03-18 18:53:00,
2013-03-18 14:58:00,39.8,39.8,30.04,South,188,1.0,4.0,100,0.00,,,0.03,Wunderground v.1.15,2013-03-18 18:58:00,
2013-03-18 15:03:00,40.0,40.0,30.04,South,175,0.0,8.0,100,0.00,,,0.03,Wunderground v.1.15,2013-03-18 19:03:00,
2013-03-18 15:08:00,39.9,39.9,30.05,SSW,195,0.0,8.0,100,0.00,,,0.03,Wunderground v.1.15,2013-03-18 19:08:00,
2013-03-18 15:13:00,40.0,40.0,30.04,SSE,150,0.0,4.0,100,0.00,,,0.03,Wunderground v.1.15,2013-03-18 19:13:00,
2013-03-18 15:18:00,39.9,39.9,30.03,South,180,0.0,6.0,100,0.00,,,0.03,Wunderground v.1.15,2013-03-18 19:18:00,
2013-03-18 15:23:00,39.9,39.9,30.03,SSE,159,1.0,5.0,100,0.00,,,0.04,Wunderground v.1.15,2013-03-18 19:23:00,
2013-03-18 15:28:00,40.0,40.0,30.02,South,175,1.0,5.0,100,0.00,,,0.04,Wunderground v.1.15,2013-03-18 19:28:00,
2013-03-18 15:33:00,40.2,40.2,30.02,South,177,3.0,4.0,100,0.00,,,0.04,Wunderground v.1.15,2013-03-18 19:33:00,
2013-03-18 15:38:00,40.2,40.2,30.02,South,179,4.0,5.0,100,0.00,,,0.04,Wunderground v.1.15,2013-03-18 19:38:00,
2013-03-18 15:43:00,40.3,40.3,30.01,South,174,2.0,7.0,100,0.00,,,0.04,Wunderground v.1.15,2013-03-18 19:43:00,
2013-03-18 15:48:00,40.3,40.3,30.01,SSW,196,0.0,7.0,100,0.00,,,0.04,Wunderground v.1.15,2013-03-18 19:48:00,
2013-03-18 15:53:00,40.4,40.4,30.02,South,169,0.0,6.0,100,0.00,,,0.04,Wunderground v.1.15,2013-03-18 19:53:00,
2013-03-18 15:58:00,40.5,40.5,30.02,South,169,0.0,6.0,100,0.00,,,0.04,Wunderground v.1.15,2013-03-18 19:58:00,
2013-03-18 16:04:00,40.7,40.7,30.02,SSE,163,4.0,5.0,100,0.00,,,0.04,Wunderground v.1.15,2013-03-18 20:04:00,
2013-03-18 16:09:00,40.7,40.7,30.02,South,186,0.0,5.0,100,0.00,,,0.04,Wunderground v.1.15,2013-03-18 20:09:00,
2013-03-18 16:14:00,40.7,40.7,30.03,SE,140,0.0,1.0,100,0.00,,,0.04,Wunderground v.1.15,2013-03-18 20:14:00,
2013-03-18 16:19:00,40.7,40.7,30.04,SE,140,0.0,1.0,100,0.00,,,0.04,Wunderground v.1.15,2013-03-18 20:19:00,
2013-03-18 16:24:00,40.7,40.7,30.03,SE,140,1.0,1.0,100,0.00,,,0.04,Wunderground v.1.15,2013-03-18 20:24:00,
2013-03-18 16:29:00,40.7,40.7,30.02,South,180,3.0,4.0,100,0.00,,,0.04,Wunderground v.1.15,2013-03-18 20:29:00,
2013-03-18 16:34:00,40.7,40.7,30.01,SSW,198,0.0,3.0,100,0.00,,,0.04,Wunderground v.1.15,2013-03-18 20:34:00,
2013-03-18 16:39:00,40.7,40.7,30.01,South,177,0.0,3.0,100,0.00,,,0.04,Wunderground v.1.15,2013-03-18 20:39:00,
2013-03-18 16:44:00,40.7,40.7,30.00,South,177,0.0,5.0,100,0.00,,,0.04,Wunderground v.1.15,2013-03-18 20:44:00,
2013-03-18 16:49:00,40.8,40.8,30.00,South,176,2.0,5.0,100,0.00,,,0.04,Wunderground v.1.15,2013-03-18 20:49:00,
2013-03-18 16:54:00,40.9,40.9,30.01,SSE,163,0.0,2.0,100,0.00,,,0.04,Wunderground v.1.15,2013-03-18 20:54:00,
2013-03-18 16:59:00,41.1,41.1,30.01,South,186,2.0,3.0,100,0.00,,,0.04,Wunderground v.1.15,2013-03-18 20:59:00,
2013-03-18 17:04:00,41.1,41.1,30.00,South,179,0.0,2.0,100,0.00,,,0.04,Wunderground v.1.15,2013-03-18 21:04:00,
2013-03-18 17:09:00,41.1,41.1,30.02,SSE,163,2.0,3.0,100,0.00,,,0.04,Wunderground v.1.15,2013-03-18 21:09:00,
2013-03-18 17:14:00,40.9,40.9,30.01,South,182,4.0,6.0,100,0.55,,,0.06,Wunderground v.1.15,2013-03-18 21:14:00,
2013-03-18 17:19:00,40.9,40.9,30.01,SSW,197,0.0,6.0,100,0.13,,,0.08,Wunderground v.1.15,2013-03-18 21:19:00,
2013-03-18 17:24:00,40.8,40.8,30.03,SSE,166,0.0,3.0,100,0.11,,,0.08,Wunderground v.1.15,2013-03-18 21:24:00,
2013-03-18 17:30:00,40.8,40.8,30.04,SSW,194,0.0,1.0,100,0.06,,,0.08,Wunderground v.1.15,2013-03-18 21:30:00,
2013-03-18 17:35:00,40.9,40.9,30.06,SW,229,0.0,2.0,100,0.04,,,0.09,Wunderground v.1.15,2013-03-18 21:35:00,
2013-03-18 17:40:00,40.9,40.9,30.05,SSW,212,0.0,0.0,100,0.13,,,0.10,Wunderground v.1.15,2013-03-18 21:40:00,
2013-03-18 17:45:00,40.9,40.9,30.05,SSW,212,0.0,1.0,100,0.10,,,0.10,Wunderground v.1.15,2013-03-18 21:45:00,
2013-03-18 17:50:00,41.0,41.0,30.06,WSW,249,0.0,1.0,100,0.05,,,0.10,Wunderground v.1.15,2013-03-18 21:50:00,
2013-03-18 17:55:00,41.0,41.0,30.04,WSW,249,0.0,1.0,100,0.04,,,0.11,Wunderground v.1.15,2013-03-18 21:55:00,
2013-03-18 18:00:00,41.0,41.0,30.06,WSW,249,0.0,0.0,100,0.16,,,0.12,Wunderground v.1.15,2013-03-18 22:00:00,
2013-03-18 18:05:00,41.0,41.0,30.06,WSW,249,0.0,1.0,100,0.31,,,0.14,Wunderground v.1.15,2013-03-18 22:05:00,
2013-03-18 18:11:00,41.0,41.0,30.06,WSW,249,0.0,1.0,100,0.49,,,0.16,Wunderground v.1.15,2013-03-18 22:11:00,
2013-03-18 18:16:00,40.9,40.9,30.06,WSW,249,0.0,1.0,100,0.19,,,0.17,Wunderground v.1.15,2013-03-18 22:16:00,
2013-03-18 18:21:00,40.9,40.9,30.05,WSW,249,0.0,0.0,100,0.11,,,0.18,Wunderground v.1.15,2013-03-18 22:21:00,
2013-03-18 18:26:00,40.9,40.9,30.06,WSW,249,0.0,0.0,100,0.07,,,0.18,Wunderground v.1.15,2013-03-18 22:26:00,
2013-03-18 18:31:00,40.9,40.9,30.06,WSW,249,0.0,0.0,100,0.06,,,0.19,Wunderground v.1.15,2013-03-18 22:31:00,
2013-03-18 18:36:00,41.0,41.0,30.06,WSW,249,0.0,1.0,100,0.13,,,0.21,Wunderground v.1.15,2013-03-18 22:36:00,
2013-03-18 18:41:00,41.1,41.1,30.04,NE,39,0.0,3.0,100,0.26,,,0.23,Wunderground v.1.15,2013-03-18 22:41:00,
2013-03-18 18:47:00,41.2,41.2,30.04,NE,40,0.0,3.0,100,0.37,,,0.27,Wunderground v.1.15,2013-03-18 22:47:00,
2013-03-18 18:52:00,41.2,41.2,30.04,SSE,165,0.0,0.0,100,0.20,,,0.28,Wunderground v.1.15,2013-03-18 22:52:00,
2013-03-18 18:57:00,41.3,41.3,30.04,SSE,165,0.0,1.0,100,0.08,,,0.29,Wunderground v.1.15,2013-03-18 22:57:00,
2013-03-18 19:02:00,41.3,41.3,30.05,SSE,165,0.0,1.0,100,0.08,,,0.29,Wunderground v.1.15,2013-03-18 23:02:00,
2013-03-18 19:07:00,41.3,41.3,30.07,SSE,165,0.0,1.0,100,0.07,,,0.30,Wunderground v.1.15,2013-03-18 23:07:00,
2013-03-18 19:12:00,41.4,41.4,30.06,SSE,165,0.0,0.0,100,0.10,,,0.31,Wunderground v.1.15,2013-03-18 23:12:00,
2013-03-18 19:17:00,41.4,41.4,30.06,SSE,165,0.0,1.0,100,0.19,,,0.32,Wunderground v.1.15,2013-03-18 23:17:00,
2013-03-18 19:22:00,41.4,41.4,30.06,SSE,165,0.0,1.0,100,0.23,,,0.34,Wunderground v.1.15,2013-03-18 23:22:00,
2013-03-18 19:27:00,41.4,41.4,30.06,SSE,165,0.0,1.0,100,0.22,,,0.36,Wunderground v.1.15,2013-03-18 23:27:00,
2013-03-18 19:32:00,41.5,41.5,30.05,SSE,165,0.0,0.0,100,0.11,,,0.37,Wunderground v.1.15,2013-03-18 23:32:00,
2013-03-18 19:37:00,41.5,41.5,30.05,SSE,165,0.0,0.0,100,0.20,,,0.38,Wunderground v.1.15,2013-03-18 23:37:00,
2013-03-18 19:42:00,41.6,41.6,30.04,SSE,165,0.0,0.0,100,0.08,,,0.38,Wunderground v.1.15,2013-03-18 23:42:00,
2013-03-18 19:47:00,41.6,41.6,30.04,SSE,165,0.0,0.0,100,0.05,,,0.38,Wunderground v.1.15,2013-03-18 23:47:00,
2013-03-18 19:52:00,41.7,41.7,30.04,SSE,165,0.0,0.0,100,0.00,,,0.38,Wunderground v.1.15,2013-03-18 23:52:00,
2013-03-18 19:57:00,41.8,41.8,30.04,SSE,165,0.0,0.0,100,0.00,,,0.38,Wunderground v.1.15,2013-03-18 23:57:00,
2013-03-18 20:02:00,41.8,41.8,30.04,SSE,165,0.0,1.0,100,0.00,,,0.38,Wunderground v.1.15,2013-03-19 00:02:00,
2013-03-18 20:07:00,41.8,41.8,30.04,SSE,165,1.0,1.0,100,0.00,,,0.38,Wunderground v.1.15,2013-03-19 00:07:00,
2013-03-18 20:12:00,41.8,41.8,30.04,South,169,0.0,2.0,100,0.00,,,0.38,Wunderground v.1.15,2013-03-19 00:12:00,
2013-03-18 20:17:00,41.7,41.7,30.04,South,186,0.0,2.0,100,0.00,,,0.38,Wunderground v.1.15,2013-03-19 00:17:00,
2013-03-18 20:22:00,41.7,41.7,30.03,South,186,1.0,2.0,100,0.00,,,0.38,Wunderground v.1.15,2013-03-19 00:22:00,
2013-03-18 20:27:00,41.7,41.7,30.03,SSE,166,0.0,3.0,100,0.00,,,0.39,Wunderground v.1.15,2013-03-19 00:27:00,
2013-03-18 20:32:00,41.7,41.7,30.02,SSE,166,0.0,1.0,100,0.06,,,0.40,Wunderground v.1.15,2013-03-19 00:32:00,
2013-03-18 20:37:00,41.7,41.7,30.00,SSW,200,1.0,2.0,100,0.06,,,0.40,Wunderground v.1.15,2013-03-19 00:37:00,
2013-03-18 20:42:00,41.6,41.6,29.99,SSE,150,1.0,4.0,100,0.06,,,0.40,Wunderground v.1.15,2013-03-19 00:42:00,
2013-03-18 20:47:00,41.5,41.5,29.97,South,184,2.0,4.0,100,0.04,,,0.40,Wunderground v.1.15,2013-03-19 00:47:00,
2013-03-18 20:53:00,41.4,41.4,29.97,South,184,0.0,1.0,100,0.00,,,0.40,Wunderground v.1.15,2013-03-19 00:53:00,
2013-03-18 20:58:00,41.3,41.3,29.96,South,184,0.0,1.0,100,0.00,,,0.40,Wunderground v.1.15,2013-03-19 00:58:00,
2013-03-18 21:03:00,41.3,41.3,29.96,South,184,0.0,0.0,100,0.00,,,0.40,Wunderground v.1.15,2013-03-19 01:03:00,
2013-03-18 21:08:00,41.3,41.3,29.99,South,184,0.0,1.0,100,0.00,,,0.40,Wunderground v.1.15,2013-03-19 01:08:00,
2013-03-18 21:13:00,41.4,41.4,29.99,South,184,0.0,1.0,100,0.00,,,0.40,Wunderground v.1.15,2013-03-19 01:13:00,
2013-03-18 21:18:00,41.5,41.5,30.00,South,184,1.0,1.0,100,0.00,,,0.40,Wunderground v.1.15,2013-03-19 01:18:00,
2013-03-18 21:23:00,41.5,41.5,30.01,South,184,0.0,0.0,100,0.00,,,0.40,Wunderground v.1.15,2013-03-19 01:23:00,
2013-03-18 21:28:00,41.5,41.5,30.01,South,184,0.0,1.0,100,0.00,,,0.40,Wunderground v.1.15,2013-03-19 01:28:00,
2013-03-18 21:33:00,41.5,41.5,30.01,South,184,0.0,1.0,100,0.00,,,0.40,Wunderground v.1.15,2013-03-19 01:33:00,
2013-03-18 21:38:00,41.5,41.5,30.01,South,184,0.0,1.0,100,0.00,,,0.40,Wunderground v.1.15,2013-03-19 01:38:00,
2013-03-18 21:43:00,41.4,41.4,30.01,South,184,0.0,0.0,100,0.00,,,0.40,Wunderground v.1.15,2013-03-19 01:43:00,
2013-03-18 21:48:00,41.4,41.4,30.01,South,184,0.0,1.0,100,0.00,,,0.40,Wunderground v.1.15,2013-03-19 01:48:00,
2013-03-18 21:53:00,41.4,41.4,30.00,South,184,0.0,0.0,100,0.00,,,0.40,Wunderground v.1.15,2013-03-19 01:53:00,
2013-03-18 21:58:00,41.4,41.4,30.00,South,184,0.0,0.0,100,0.00,,,0.40,Wunderground v.1.15,2013-03-19 01:58:00,
2013-03-18 22:03:00,41.4,41.4,30.00,South,184,0.0,0.0,100,0.00,,,0.40,Wunderground v.1.15,2013-03-19 02:03:00,
2013-03-18 22:08:00,41.4,41.4,30.00,South,184,0.0,1.0,100,0.00,,,0.40,Wunderground v.1.15,2013-03-19 02:08:00,
2013-03-18 22:13:00,41.3,41.3,30.00,South,184,0.0,0.0,100,0.00,,,0.40,Wunderground v.1.15,2013-03-19 02:13:00,
2013-03-18 22:18:00,41.2,41.2,30.00,South,184,0.0,0.0,100,0.00,,,0.40,Wunderground v.1.15,2013-03-19 02:18:00,
2013-03-18 22:23:00,41.2,41.2,30.00,South,184,0.0,0.0,100,0.00,,,0.40,Wunderground v.1.15,2013-03-19 02:23:00,
2013-03-18 22:28:00,41.0,41.0,30.00,South,184,0.0,1.0,100,0.00,,,0.40,Wunderground v.1.15,2013-03-19 02:28:00,
2013-03-18 22:33:00,41.0,41.0,30.00,South,184,0.0,1.0,100,0.00,,,0.40,Wunderground v.1.15,2013-03-19 02:33:00,
2013-03-18 22:38:00,41.1,41.1,30.00,South,184,0.0,1.0,100,0.00,,,0.40,Wunderground v.1.15,2013-03-19 02:38:00,
2013-03-18 22:43:00,41.1,41.1,30.00,South,184,0.0,0.0,100,0.00,,,0.40,Wunderground v.1.15,2013-03-19 02:43:00,
2013-03-18 22:48:00,41.0,41.0,30.00,South,184,0.0,0.0,100,0.00,,,0.40,Wunderground v.1.15,2013-03-19 02:48:00,
2013-03-18 22:53:00,41.0,41.0,30.00,South,184,0.0,0.0,100,0.00,,,0.40,Wunderground v.1.15,2013-03-19 02:53:00,
2013-03-18 22:58:00,41.0,41.0,30.00,South,184,0.0,1.0,100,0.00,,,0.40,Wunderground v.1.15,2013-03-19 02:58:00,
2013-03-18 23:03:00,41.0,41.0,30.00,South,184,0.0,0.0,100,0.00,,,0.40,Wunderground v.1.15,2013-03-19 03:03:00,
2013-03-18 23:08:00,40.9,40.9,30.00,South,171,0.0,1.0,100,0.00,,,0.40,Wunderground v.1.15,2013-03-19 03:08:00,
2013-03-18 23:13:00,40.9,40.9,30.00,ESE,111,0.0,1.0,100,0.00,,,0.40,Wunderground v.1.15,2013-03-19 03:13:00,
2013-03-18 23:18:00,40.9,40.9,30.01,ESE,111,0.0,1.0,100,0.00,,,0.40,Wunderground v.1.15,2013-03-19 03:18:00,
2013-03-18 23:23:00,40.9,40.9,30.01,ESE,111,0.0,0.0,100,0.00,,,0.40,Wunderground v.1.15,2013-03-19 03:23:00,
2013-03-18 23:28:00,40.9,40.9,30.00,ESE,111,0.0,0.0,100,0.00,,,0.40,Wunderground v.1.15,2013-03-19 03:28:00,
2013-03-18 23:33:00,40.9,40.9,30.01,ESE,111,0.0,0.0,100,0.00,,,0.40,Wunderground v.1.15,2013-03-19 03:33:00,
2013-03-18 23:38:00,40.8,40.8,30.01,ESE,111,0.0,0.0,100,0.00,,,0.40,Wunderground v.1.15,2013-03-19 03:38:00,
2013-03-18 23:43:00,40.7,40.7,30.01,ESE,111,0.0,0.0,100,0.00,,,0.40,Wunderground v.1.15,2013-03-19 03:43:00,
2013-03-18 23:48:00,40.6,40.6,30.01,ESE,111,0.0,0.0,100,0.00,,,0.40,Wunderground v.1.15,2013-03-19 03:48:00,
2013-03-18 23:53:00,40.6,40.6,30.01,ESE,111,0.0,0.0,100,0.00,,,0.40,Wunderground v.1.15,2013-03-19 03:53:00,
2013-03-18 23:58:00,40.5,40.5,30.01,ESE,111,0.0,0.0,100,0.00,,,0.00,Wunderground v.1.15,2013-03-19 03:58:00,